Terminal Aerodrome Forecast
Issued by NWS North Platte, NE

Home | Current Version | Previous Version | Text Only | Print | Product List | Glossary On
Versions: 1 2 3 4 5 6 7 8 9 10 11 12 13 14 15 16 17 18 19 20 21 22
000
FTUS43 KLBF 040400 AAB
TAFLBF
TAF AMD
KLBF 040428Z 0404/0424 36011KT P6SM SCT012 OVC040
      TEMPO 0404/0405 1SM -SN BKN008 OVC040
     FM040500 35008KT 3SM -SN OVC008
      TEMPO 0407/0409 6SM -SN SCT012 OVC035
     FM040900 33006KT P6SM OVC050
     FM041500 33006KT P6SM SCT250=

USA.gov is the U.S. government's official web portal to all federal, state and local government web resources and services.